Find Starlink 38112

NORAD ID: 100181 Int'l Des: 2026-175 Owner: SPXS Country: US Constellation: starlink operational

当前视图

正在加载3D地球...

About Starlink 38112

Starlink 38112 (NORAD 100181) is a starlink constellation satellite launched Aug 1, 2026 by SPXS of US. with a mass of 575.00 kg.

即将过境

Passes for default location (London). Set your location on the main map for personalized predictions.

高度历史

Loading altitude history...

两行轨道根数

1 A0181U 26175C 26224.56880643 .00065344 00000-0 33884-3 0 9998
2 A0181 97.2827 65.0229 0001186 95.1140 265.0263 15.80848221 3047
Epoch: Aug 12, 2026 • Age: 25 hours

当前状态

高度 330.0 km
远地点 / 近地点 N/A
速度 7.71 km/s
星下点 18.60°N, 66.97°E
发射日期 Aug 1, 2026
运行时间 12 days
类型 internet

技术详情

分类 Payload
质量 575.00 kg
干质量 530.00 kg
总质量 575.00 kg
长度 0.30 m
直径 4.10 m
跨度 29.00 m
形状 Box + pan
制造商 SPXS
平台类型 Starlink V2MO
阶段状态 In Orbit
所有者/国家 SPXS/US

Most Searched